EQUISAT (43552 NORAD) Tracking and Keplerian Element Data

This shows tracking and keplerian element data for the satellite.

Feedback or suggestion? Click here.




ElementValue
Catalog43552
NameEQUISAT
Epoch Orbit5674
Epoch Day193.53427643
Epoch Year2019
RAAN221.8177
Inclination51.6375
Eccentricity0.0005199
Argument of Perigee237.5466
Mean Anonmoly122.5026
Mean Motion15.62077301
Decay Rate8.901E-05
L11 43552U 98067PA 19193.53427643 .00008901 00000-0 10549-3 0 9996
L22 43552 51.6375 221.8177 0005199 237.5466 122.5026 15.62077301 56745

Live tracking and technical data element details for EQUISAT (NORAD 43552). EQUISAT can be tracked NOW for your location showing map with azimuth and elevation plus other details from your city location.

Track the satellite on the map from your city or location and see movement details for azimuth, elevation, latitude, longitude, range, height, and movement on the map or in text.







IsCatalogInMostPopularTable: catalog: 43552, numindb: 198
Update: records affected: 1



GetName: 43552 EQUISAT

Hit Count: updated at: Tue, 16 Jul 2019 21:44:35 GMT